Time,TemperatureF,DewpointF,PressureIn,WindDirection,WindDirectionDegrees,WindSpeedMPH,WindSpeedGustMPH,Humidity,HourlyPrecipIn,Conditions,Clouds,dailyrainin,SoftwareType,DateUTC
2013-04-05 00:12:00,32.8,32.0,30.23,East,99,0.0,0.0,96,0.01,,,0.01,weatherlink.com 1.10,2013-04-05 04:12:00,
2013-04-05 00:27:00,32.8,32.0,30.23,East,99,0.0,0.0,96,0.02,,,0.02,weatherlink.com 1.10,2013-04-05 04:27:00,
2013-04-05 00:42:00,32.9,32.0,30.22,East,99,0.0,0.0,96,0.03,,,0.03,weatherlink.com 1.10,2013-04-05 04:42:00,
2013-04-05 00:57:00,33.1,32.0,30.21,East,99,0.0,0.0,96,0.03,,,0.04,weatherlink.com 1.10,2013-04-05 04:57:00,
2013-04-05 01:12:00,33.2,32.0,30.21,East,99,0.0,0.0,96,0.04,,,0.05,weatherlink.com 1.10,2013-04-05 05:12:00,
2013-04-05 01:27:00,33.2,32.0,30.21,East,99,0.0,0.0,96,0.03,,,0.05,weatherlink.com 1.10,2013-04-05 05:27:00,
2013-04-05 01:42:00,33.1,32.0,30.21,East,99,0.0,0.0,96,0.03,,,0.06,weatherlink.com 1.10,2013-04-05 05:42:00,
2013-04-05 01:57:00,32.9,32.0,30.20,East,99,0.0,0.0,96,0.03,,,0.07,weatherlink.com 1.10,2013-04-05 05:57:00,
2013-04-05 02:12:00,32.6,32.0,30.21,East,99,0.0,0.0,96,0.02,,,0.07,weatherlink.com 1.10,2013-04-05 06:12:00,
2013-04-05 02:27:00,32.6,32.0,30.20,East,99,0.0,0.0,96,0.02,,,0.07,weatherlink.com 1.10,2013-04-05 06:27:00,
2013-04-05 02:42:00,32.8,32.0,30.19,East,99,0.0,0.0,96,0.02,,,0.08,weatherlink.com 1.10,2013-04-05 06:42:00,
2013-04-05 02:57:00,32.8,32.0,30.19,East,99,0.0,0.0,96,0.01,,,0.08,weatherlink.com 1.10,2013-04-05 06:57:00,
2013-04-05 03:12:00,32.8,32.0,30.19,East,99,0.0,0.0,96,0.01,,,0.08,weatherlink.com 1.10,2013-04-05 07:12:00,
2013-04-05 03:27:00,32.6,32.0,30.19,East,99,0.0,0.0,96,0.02,,,0.09,weatherlink.com 1.10,2013-04-05 07:27:00,
2013-04-05 03:42:00,32.5,32.0,30.19,East,99,0.0,0.0,97,0.01,,,0.09,weatherlink.com 1.10,2013-04-05 07:42:00,
2013-04-05 03:57:00,32.5,32.0,30.19,East,99,0.0,0.0,96,0.01,,,0.09,weatherlink.com 1.10,2013-04-05 07:57:00,
2013-04-05 04:12:00,32.5,32.0,30.20,East,99,0.0,0.0,96,0.01,,,0.09,weatherlink.com 1.10,2013-04-05 08:12:00,
2013-04-05 04:27:00,32.4,31.0,30.20,East,99,0.0,0.0,96,0.00,,,0.09,weatherlink.com 1.10,2013-04-05 08:27:00,
2013-04-05 04:42:00,32.4,31.0,30.21,East,99,0.0,0.0,96,0.01,,,0.10,weatherlink.com 1.10,2013-04-05 08:42:00,
2013-04-05 04:57:00,32.5,32.0,30.22,East,98,0.0,0.0,96,0.01,,,0.10,weatherlink.com 1.10,2013-04-05 08:57:00,
2013-04-05 05:12:00,32.6,32.0,30.22,East,99,0.0,0.0,97,0.01,,,0.10,weatherlink.com 1.10,2013-04-05 09:12:00,
2013-04-05 05:27:00,32.6,32.0,30.22,East,99,0.0,0.0,97,0.02,,,0.11,weatherlink.com 1.10,2013-04-05 09:27:00,
2013-04-05 05:42:00,32.7,32.0,30.22,East,99,0.0,0.0,97,0.01,,,0.11,weatherlink.com 1.10,2013-04-05 09:42:00,
2013-04-05 05:57:00,32.6,32.0,30.22,East,99,0.0,0.0,97,0.02,,,0.12,weatherlink.com 1.10,2013-04-05 09:57:00,
2013-04-05 06:12:00,32.5,32.0,30.22,East,99,0.0,0.0,97,0.02,,,0.12,weatherlink.com 1.10,2013-04-05 10:12:00,
2013-04-05 06:27:00,32.6,32.0,30.22,East,99,0.0,0.0,97,0.01,,,0.12,weatherlink.com 1.10,2013-04-05 10:27:00,
2013-04-05 06:42:00,32.5,32.0,30.22,East,99,0.0,0.0,97,0.02,,,0.13,weatherlink.com 1.10,2013-04-05 10:42:00,
2013-04-05 06:57:00,32.7,32.0,30.23,East,99,0.0,0.0,97,0.01,,,0.13,weatherlink.com 1.10,2013-04-05 10:57:00,
2013-04-05 07:12:00,33.0,32.0,30.23,East,98,0.0,0.0,97,0.01,,,0.13,weatherlink.com 1.10,2013-04-05 11:12:00,
2013-04-05 07:27:00,33.1,32.0,30.23,East,98,0.0,0.0,97,0.01,,,0.13,weatherlink.com 1.10,2013-04-05 11:27:00,
2013-04-05 07:42:00,33.4,33.0,30.23,East,98,0.0,0.0,97,0.01,,,0.14,weatherlink.com 1.10,2013-04-05 11:42:00,
2013-04-05 07:57:00,33.9,33.0,30.23,ENE,74,0.0,0.0,97,0.01,,,0.14,weatherlink.com 1.10,2013-04-05 11:57:00,
2013-04-05 08:28:00,34.8,34.0,30.23,NW,305,0.0,1.0,97,0.02,,,0.15,weatherlink.com 1.10,2013-04-05 12:28:00,
2013-04-05 08:43:00,35.1,34.0,30.23,West,273,0.0,3.0,97,0.02,,,0.16,weatherlink.com 1.10,2013-04-05 12:43:00,
2013-04-05 08:58:00,35.1,34.0,30.24,West,267,0.0,5.0,97,0.03,,,0.17,weatherlink.com 1.10,2013-04-05 12:58:00,
2013-04-05 09:13:00,35.3,35.0,30.24,NNE,22,0.0,2.0,97,0.03,,,0.18,weatherlink.com 1.10,2013-04-05 13:13:00,
2013-04-05 09:28:00,36.2,36.0,30.24,West,265,0.0,4.0,97,0.04,,,0.19,weatherlink.com 1.10,2013-04-05 13:28:00,
2013-04-05 09:43:00,36.1,35.0,30.24,NW,324,2.0,4.0,97,0.05,,,0.21,weatherlink.com 1.10,2013-04-05 13:43:00,
2013-04-05 09:58:00,36.4,36.0,30.25,NNW,342,0.0,3.0,97,0.05,,,0.22,weatherlink.com 1.10,2013-04-05 13:58:00,
2013-04-05 10:13:00,36.8,36.0,30.25,NW,325,0.0,4.0,95,0.06,,,0.24,weatherlink.com 1.10,2013-04-05 14:13:00,
2013-04-05 10:28:00,37.1,35.0,30.26,West,273,0.0,9.0,92,0.06,,,0.25,weatherlink.com 1.10,2013-04-05 14:28:00,
2013-04-05 10:43:00,38.5,36.0,30.26,West,278,0.0,2.0,91,0.07,,,0.28,weatherlink.com 1.10,2013-04-05 14:43:00,
2013-04-05 10:58:00,39.5,35.0,30.26,WNW,296,0.0,6.0,84,0.09,,,0.31,weatherlink.com 1.10,2013-04-05 14:58:00,
2013-04-05 11:13:00,40.9,35.0,30.26,WSW,248,0.0,5.0,78,0.11,,,0.35,weatherlink.com 1.10,2013-04-05 15:13:00,
2013-04-05 11:28:00,42.5,33.0,30.25,North,355,3.0,10.0,70,0.13,,,0.39,weatherlink.com 1.10,2013-04-05 15:28:00,
2013-04-05 11:43:00,43.9,34.0,30.25,NNW,346,1.0,6.0,68,0.14,,,0.42,weatherlink.com 1.10,2013-04-05 15:43:00,
2013-04-05 11:58:00,44.0,33.0,30.25,NNW,339,2.0,9.0,65,0.14,,,0.45,weatherlink.com 1.10,2013-04-05 15:58:00,
2013-04-05 12:13:00,44.9,34.0,30.25,NW,317,4.0,6.0,66,0.12,,,0.47,weatherlink.com 1.10,2013-04-05 16:13:00,
2013-04-05 12:28:00,44.6,30.0,30.25,WSW,247,0.0,10.0,58,0.10,,,0.49,weatherlink.com 1.10,2013-04-05 16:28:00,
2013-04-05 12:43:00,44.8,29.0,30.25,NNE,17,4.0,9.0,54,0.09,,,0.51,weatherlink.com 1.10,2013-04-05 16:43:00,
2013-04-05 12:58:00,46.8,32.0,30.24,North,360,2.0,6.0,56,0.06,,,0.51,weatherlink.com 1.10,2013-04-05 16:58:00,
2013-04-05 13:13:00,46.6,28.0,30.24,SW,221,0.0,9.0,49,0.04,,,0.51,weatherlink.com 1.10,2013-04-05 17:13:00,
2013-04-05 13:43:00,47.9,31.0,30.23,North,5,0.0,12.0,52,0.00,,,0.51,weatherlink.com 1.10,2013-04-05 17:43:00,
2013-04-05 13:58:00,48.3,27.0,30.22,North,351,0.0,10.0,44,0.00,,,0.51,weatherlink.com 1.10,2013-04-05 17:58:00,
2013-04-05 14:13:00,49.8,32.0,30.22,North,355,3.0,7.0,50,0.00,,,0.51,weatherlink.com 1.10,2013-04-05 18:13:00,
2013-04-05 14:44:00,50.0,30.0,30.22,North,360,2.0,8.0,46,0.00,,,0.51,weatherlink.com 1.10,2013-04-05 18:44:00,
2013-04-05 14:59:00,51.8,31.0,30.21,WSW,240,2.0,7.0,46,0.00,,,0.51,weatherlink.com 1.10,2013-04-05 18:59:00,
2013-04-05 15:14:00,52.5,32.0,30.21,NNW,337,1.0,6.0,46,0.00,,,0.51,weatherlink.com 1.10,2013-04-05 19:14:00,
2013-04-05 16:14:00,52.6,31.0,30.20,NW,321,3.0,6.0,44,0.01,,,0.52,weatherlink.com 1.10,2013-04-05 20:14:00,
2013-04-05 16:29:00,52.8,32.0,30.20,NNE,19,0.0,6.0,45,0.00,,,0.52,weatherlink.com 1.10,2013-04-05 20:29:00,
2013-04-05 16:44:00,52.7,29.0,30.20,WSW,249,4.0,9.0,41,0.00,,,0.52,weatherlink.com 1.10,2013-04-05 20:44:00,
2013-04-05 16:59:00,52.6,29.0,30.20,NE,42,0.0,5.0,40,0.00,,,0.52,weatherlink.com 1.10,2013-04-05 20:59:00,
2013-04-05 17:29:00,53.0,28.0,30.21,West,265,1.0,7.0,39,0.00,,,0.52,weatherlink.com 1.10,2013-04-05 21:29:00,
2013-04-05 17:44:00,52.4,27.0,30.21,West,267,0.0,6.0,38,0.00,,,0.52,weatherlink.com 1.10,2013-04-05 21:44:00,
2013-04-05 17:59:00,52.1,27.0,30.21,West,269,0.0,5.0,38,0.00,,,0.52,weatherlink.com 1.10,2013-04-05 21:59:00,
2013-04-05 18:14:00,51.8,27.0,30.22,NNE,17,0.0,9.0,38,0.00,,,0.52,weatherlink.com 1.10,2013-04-05 22:14:00,
2013-04-05 18:29:00,51.2,27.0,30.22,West,263,0.0,4.0,40,0.00,,,0.52,weatherlink.com 1.10,2013-04-05 22:29:00,
2013-04-05 18:44:00,50.3,28.0,30.22,SW,235,0.0,7.0,42,0.00,,,0.52,weatherlink.com 1.10,2013-04-05 22:44:00,
2013-04-05 18:59:00,49.7,27.0,30.23,WNW,286,0.0,7.0,41,0.00,,,0.52,weatherlink.com 1.10,2013-04-05 22:59:00,
2013-04-05 19:29:00,48.4,27.0,30.24,West,269,0.0,1.0,44,0.00,,,0.52,weatherlink.com 1.10,2013-04-05 23:29:00,
2013-04-05 19:44:00,47.6,27.0,30.24,SW,236,0.0,4.0,45,0.00,,,0.52,weatherlink.com 1.10,2013-04-05 23:44:00,
2013-04-05 19:59:00,46.5,27.0,30.24,WSW,242,0.0,4.0,47,0.00,,,0.52,weatherlink.com 1.10,2013-04-05 23:59:00,
2013-04-05 20:14:00,44.2,28.0,30.24,WSW,242,0.0,0.0,54,0.00,,,0.52,weatherlink.com 1.10,2013-04-06 00:14:00,
2013-04-05 20:29:00,42.3,28.0,30.25,WSW,242,0.0,0.0,58,0.00,,,0.52,weatherlink.com 1.10,2013-04-06 00:29:00,
2013-04-05 20:44:00,40.6,29.0,30.25,WSW,242,0.0,0.0,63,0.00,,,0.52,weatherlink.com 1.10,2013-04-06 00:44:00,
2013-04-05 20:59:00,39.6,29.0,30.26,WSW,242,0.0,0.0,65,0.00,,,0.52,weatherlink.com 1.10,2013-04-06 00:59:00,
2013-04-05 21:14:00,38.5,28.0,30.27,WSW,242,0.0,0.0,67,0.00,,,0.52,weatherlink.com 1.10,2013-04-06 01:14:00,
2013-04-05 21:29:00,37.8,28.0,30.27,WSW,242,0.0,0.0,69,0.00,,,0.52,weatherlink.com 1.10,2013-04-06 01:29:00,
2013-04-05 21:44:00,37.3,28.0,30.27,WSW,242,0.0,0.0,70,0.00,,,0.52,weatherlink.com 1.10,2013-04-06 01:44:00,
2013-04-05 21:59:00,36.9,28.0,30.28,WSW,242,0.0,0.0,71,0.00,,,0.52,weatherlink.com 1.10,2013-04-06 01:59:00,
2013-04-05 22:14:00,36.4,28.0,30.28,WSW,242,0.0,0.0,72,0.00,,,0.52,weatherlink.com 1.10,2013-04-06 02:14:00,
2013-04-05 22:29:00,36.0,28.0,30.28,WSW,242,0.0,0.0,73,0.00,,,0.52,weatherlink.com 1.10,2013-04-06 02:29:00,
2013-04-05 22:44:00,35.6,28.0,30.29,WSW,242,0.0,0.0,73,0.00,,,0.52,weatherlink.com 1.10,2013-04-06 02:44:00,
2013-04-05 22:59:00,35.2,28.0,30.29,WSW,242,0.0,0.0,74,0.00,,,0.52,weatherlink.com 1.10,2013-04-06 02:59:00,
2013-04-05 23:14:00,35.0,28.0,30.28,WSW,242,0.0,0.0,74,0.00,,,0.52,weatherlink.com 1.10,2013-04-06 03:14:00,
2013-04-05 23:29:00,35.2,27.0,30.29,WSW,242,0.0,0.0,73,0.00,,,0.52,weatherlink.com 1.10,2013-04-06 03:29:00,
2013-04-05 23:44:00,36.2,28.0,30.29,WSW,242,0.0,0.0,71,0.00,,,0.52,weatherlink.com 1.10,2013-04-06 03:44:00,
2013-04-05 23:59:00,36.7,28.0,30.30,WSW,242,0.0,0.0,70,0.00,,,0.00,weatherlink.com 1.10,2013-04-06 03:59:00,